Date,TemperatureHighF,TemperatureAvgF,TemperatureLowF,DewpointHighF,DewpointAvgF,DewpointLowF,HumidityHigh,HumidityAvg,HumidityLow,PressureMaxIn,PressureMinIn,WindSpeedMaxMPH,WindSpeedAvgMPH,GustSpeedMaxMPH,PrecipitationSumIn
2013-1-1,45.1,41.3,35.2,44.3,40.4,34.4,97,96,90,30.12,29.95,12,2,15,0.81
2013-1-2,35.2,31.9,30.9,34.4,30.3,28.9,97,94,87,30.23,30.09,11,2,11,0.00
2013-1-3,45.9,33.3,26.8,32.3,27.1,23.7,95,79,45,30.40,30.20,10,1,10,0.01
2013-1-4,47.2,33.0,22.6,31.9,26.0,20.9,95,78,46,30.47,30.37,10,0,10,0.00
2013-1-5,48.4,36.8,23.8,35.2,29.6,22.1,95,77,52,30.40,30.23,6,0,6,0.00
2013-1-6,52.8,41.9,28.0,40.5,34.9,24.8,92,77,54,30.35,30.14,15,2,15,0.00
2013-1-7,51.2,34.3,23.0,34.1,27.7,20.9,94,79,48,30.41,30.25,8,1,8,0.00
2013-1-8,61.0,47.1,30.9,44.8,38.4,28.9,92,73,52,30.33,30.20,13,2,13,0.00
2013-1-9,54.9,52.3,49.4,54.5,50.9,44.4,100,95,81,30.37,30.25,12,1,12,0.98
2013-1-10,65.1,59.6,53.7,61.6,57.8,53.1,99,94,86,30.35,29.96,27,6,28,0.04
2013-1-11,72.0,65.2,61.4,65.3,62.1,60.5,99,90,74,30.03,29.93,21,4,21,0.12
2013-1-12,67.5,66.4,65.3,66.9,64.4,61.9,98,93,83,30.00,29.82,24,4,24,0.69
2013-1-13,68.7,57.4,37.1,66.0,54.8,35.6,100,92,81,30.16,29.79,21,4,23,1.29
2013-1-14,37.2,32.6,30.2,35.8,30.9,28.2,100,93,88,30.34,30.16,16,4,16,0.06
2013-1-15,35.3,33.7,31.2,34.6,32.8,30.2,98,97,96,30.22,29.96,19,3,19,0.50
2013-1-16,36.2,35.1,34.3,35.7,34.6,33.8,98,98,98,30.11,29.97,10,1,10,0.39
2013-1-17,46.5,37.7,34.0,37.5,34.0,30.5,98,87,69,30.41,30.00,24,4,24,0.02
2013-1-18,51.6,37.6,26.9,38.1,30.1,25.1,94,76,45,30.55,30.36,9,1,9,0.00
2013-1-19,57.5,44.3,32.8,37.9,33.0,27.4,85,66,44,30.36,30.15,19,3,20,0.00
2013-1-20,57.4,43.6,32.9,39.7,32.4,23.2,92,67,42,30.23,30.14,10,1,10,0.00
2013-1-21,45.1,33.5,25.1,24.5,20.4,15.4,84,60,37,30.28,30.13,20,1,20,0.00
2013-1-22,34.5,27.3,19.7,15.6,12.6,8.4,76,55,35,30.42,30.26,10,1,11,0.00
2013-1-23,54.6,38.7,26.6,35.3,24.9,11.9,92,59,42,30.36,30.13,12,1,12,0.00
2013-1-24,39.2,33.3,28.2,33.6,20.3,12.4,93,60,37,30.43,30.18,19,3,19,0.00
2013-1-25,42.4,36.6,30.9,41.0,33.8,14.4,100,90,50,30.27,30.01,19,1,19,0.49
2013-1-26,49.7,37.3,31.6,37.5,32.7,28.8,97,85,58,30.33,30.23,8,1,8,0.16
2013-1-27,51.8,42.7,29.0,43.5,37.0,27.5,96,81,64,30.34,30.21,17,3,18,0.03
2013-1-28,59.1,53.7,47.1,53.4,47.7,38.6,90,80,69,30.24,30.11,20,4,20,0.00
2013-1-29,68.9,61.7,54.4,63.7,58.6,51.6,96,90,83,30.12,29.60,28,6,28,0.00
2013-1-30,70.8,53.4,36.3,63.9,49.5,27.1,97,87,70,29.87,29.44,29,6,31,1.73
2013-1-31,48.7,39.4,32.9,36.7,29.0,24.5,92,67,47,30.18,29.88,21,4,21,0.03
2013-2-1,33.4,25.8,17.0,31.2,19.4,13.7,93,77,58,30.48,30.18,12,2,12,0.05
2013-2-2,47.2,33.7,22.8,36.2,28.1,18.4,92,80,64,30.33,30.06,12,1,12,0.04
2013-2-3,52.6,39.3,29.3,38.1,31.6,25.4,94,76,46,30.15,30.01,18,2,19,0.00
2013-2-4,55.9,41.7,27.4,37.2,31.4,24.8,93,70,40,30.12,29.91,18,2,18,0.00
2013-2-5,64.8,51.0,38.9,47.1,41.2,35.6,88,71,45,30.03,29.90,9,1,9,0.00
2013-2-6,61.2,47.5,36.8,42.7,37.1,33.5,92,69,46,30.19,30.03,10,1,10,0.00
2013-2-7,62.8,52.0,42.9,49.4,43.5,34.0,94,73,56,30.08,29.88,19,2,19,0.00
2013-2-8,50.0,43.4,35.9,48.1,39.7,30.5,96,87,75,30.29,29.85,16,3,16,0.11
2013-2-9,57.2,44.0,34.6,37.7,33.2,29.9,84,67,42,30.34,30.12,16,3,16,0.00
2013-2-10,58.7,53.1,48.7,56.0,44.5,33.9,96,75,49,30.13,29.79,35,7,35,0.75
2013-2-11,57.9,51.0,41.5,57.1,42.9,33.3,97,75,44,30.13,29.90,11,1,11,0.00
2013-2-12,53.5,45.2,38.5,42.2,37.0,33.5,94,75,51,30.14,29.77,13,1,13,0.08
2013-2-13,43.9,40.7,35.1,42.6,38.8,32.9,96,93,85,30.00,29.67,13,2,14,0.11
2013-2-14,62.1,45.1,32.9,44.2,36.4,31.9,97,75,41,30.04,29.95,14,1,14,0.01
2013-2-15,53.6,42.3,32.4,40.7,33.6,23.8,92,72,50,30.14,30.00,15,2,17,0.00
2013-2-16,40.2,31.5,21.4,25.3,20.1,13.2,88,64,44,30.20,30.09,20,2,20,0.00
2013-2-17,49.1,34.3,18.9,25.7,20.4,14.0,86,59,34,30.29,30.17,15,2,15,0.00
2013-2-18,62.8,49.3,35.5,43.4,33.4,22.2,91,55,41,30.19,29.84,32,7,32,0.20
2013-2-19,52.6,43.9,29.6,45.6,32.4,21.3,96,67,32,30.20,29.84,19,4,19,0.10
2013-2-20,36.7,30.6,23.5,23.8,20.6,17.9,81,67,52,30.32,30.20,9,2,9,0.00
2013-2-21,52.4,38.7,26.8,46.3,29.6,19.5,96,72,37,30.22,29.85,23,3,23,0.70
2013-2-22,59.4,52.4,47.8,51.5,48.5,46.2,96,87,72,30.02,29.85,19,4,19,0.01
2013-2-23,56.4,45.3,34.2,46.8,38.1,30.5,93,77,53,29.98,29.85,10,1,10,0.00
2013-2-24,56.5,41.9,30.3,33.8,30.1,26.8,89,66,36,30.10,29.95,12,2,12,0.00
2013-2-25,65.0,49.7,34.8,47.5,36.0,27.3,82,61,34,29.99,29.50,29,7,29,0.00
2013-2-26,53.4,47.3,39.5,49.0,43.3,36.8,95,86,70,29.70,29.37,31,7,37,0.17
2013-2-27,44.0,40.6,38.8,37.1,34.8,32.1,91,80,71,29.89,29.70,15,4,15,0.00
2013-2-28,40.7,37.5,34.4,34.3,30.6,28.0,86,76,63,30.03,29.84,15,3,15,0.01
2013-3-1,40.6,36.1,33.5,34.5,32.7,30.8,95,87,75,30.04,29.99,9,1,9,0.02
2013-3-2,36.0,32.7,30.2,33.9,30.7,27.4,96,92,88,30.13,30.00,15,2,15,0.12
2013-3-3,45.2,34.0,25.6,27.6,24.0,18.1,92,69,37,30.15,30.07,13,2,13,0.02
2013-3-4,58.1,45.5,29.2,38.8,30.4,22.7,85,57,39,30.13,29.84,24,5,24,0.00
2013-3-5,56.4,47.2,32.6,55.3,42.8,24.2,96,85,57,29.98,29.63,24,4,24,0.71
2013-3-6,44.1,35.5,28.9,33.5,28.3,25.0,91,75,63,30.28,29.98,21,4,21,0.00
2013-3-7,44.6,34.9,28.8,34.4,29.3,26.2,91,80,63,30.37,30.28,12,2,12,0.00
2013-3-8,58.9,41.4,25.6,36.5,29.2,23.9,95,66,31,30.39,30.22,13,2,14,0.01
2013-3-9,66.5,52.6,37.5,40.7,35.5,29.5,83,55,32,30.23,30.02,15,3,15,0.00
2013-3-10,70.7,63.0,54.5,51.4,42.0,36.3,60,46,37,30.03,29.76,30,9,30,0.00
2013-3-11,65.5,49.7,39.8,54.2,45.7,33.3,96,86,61,29.95,29.70,25,4,25,0.70
2013-3-12,58.1,45.0,36.4,39.5,33.5,30.4,85,66,41,30.13,29.95,13,2,13,0.00
2013-3-13,50.6,38.9,29.7,31.0,27.3,22.5,89,65,38,30.38,30.11,18,3,19,0.00
2013-3-14,52.9,37.5,23.1,38.2,26.9,20.1,94,69,35,30.42,30.20,12,1,12,0.19
2013-3-15,76.8,56.3,35.8,52.8,43.0,32.2,95,64,39,30.20,29.86,17,3,17,0.01
2013-3-16,79.1,66.3,56.4,56.8,51.6,46.0,74,60,42,29.88,29.76,20,3,20,0.00
2013-3-17,74.3,57.1,46.5,57.3,49.7,44.0,94,77,48,29.91,29.77,15,2,15,0.00
2013-3-18,63.5,59.2,46.1,60.3,55.9,42.6,97,89,74,29.95,29.64,22,4,22,0.68
2013-3-19,59.7,47.2,35.4,44.1,32.2,19.9,97,62,25,30.15,29.95,13,2,14,0.01
2013-3-20,58.8,43.4,30.9,34.5,28.3,20.5,91,58,32,30.14,29.96,18,3,19,0.00
2013-3-21,47.0,34.5,21.0,23.7,19.7,16.3,88,57,34,30.07,29.94,15,2,15,0.00
2013-3-22,50.7,41.4,31.3,39.9,29.5,21.7,82,63,47,30.02,29.94,11,2,11,0.00
2013-3-23,57.1,48.2,42.2,48.8,44.5,39.3,95,88,72,29.97,29.69,14,2,14,0.10
2013-3-24,60.7,49.1,37.2,56.8,45.5,28.8,98,88,68,29.70,29.35,25,5,29,0.56
2013-3-25,37.4,35.4,33.4,30.6,28.4,27.0,89,76,69,30.11,29.70,18,5,18,0.00
2013-3-26,39.7,35.4,30.9,34.1,30.9,28.5,95,84,65,30.33,30.10,12,2,12,0.05
2013-3-27,54.5,40.6,25.8,34.4,29.4,23.6,94,67,39,30.39,30.27,13,1,13,0.00
2013-3-28,62.4,46.0,29.9,39.1,33.6,27.5,94,65,39,30.36,30.24,10,1,10,0.00
2013-3-29,56.5,48.6,42.4,48.7,42.5,35.7,96,80,61,30.30,30.14,11,2,11,0.08
2013-3-30,64.5,53.6,45.8,54.5,49.5,45.0,98,87,55,30.18,29.90,13,1,13,0.34
2013-3-31,61.6,55.1,46.6,58.3,53.4,45.1,98,94,84,29.90,29.83,12,1,12,0.04
2013-4-1,66.6,52.9,42.1,50.6,43.2,32.4,98,73,43,30.11,29.87,17,2,17,0.01
2013-4-2,51.9,44.6,36.5,33.7,29.7,23.3,73,57,37,30.24,30.10,13,2,13,0.00
2013-4-3,56.4,48.0,36.3,32.5,27.5,23.9,67,46,32,30.24,30.13,18,4,19,0.00
2013-4-4,48.9,45.8,40.9,47.5,41.1,28.5,97,85,48,30.13,29.96,8,1,9,0.59
2013-4-5,68.8,54.2,44.3,49.0,42.3,36.0,97,69,33,30.09,29.97,14,2,14,0.01
2013-4-6,74.4,58.0,39.8,48.5,42.9,37.5,95,62,31,30.12,29.95,17,2,18,0.00
2013-4-7,76.3,63.3,52.5,55.0,48.9,42.2,76,60,41,30.05,29.94,17,3,17,0.00
2013-4-8,79.2,67.8,56.1,60.4,55.6,48.8,82,66,47,30.01,29.89,21,4,21,0.00
2013-4-9,80.7,69.8,61.4,65.1,59.9,55.0,83,71,55,30.09,29.91,21,3,21,0.00
2013-4-10,85.8,74.6,62.5,65.6,60.4,58.3,88,63,44,30.00,29.75,18,3,18,0.00
2013-4-11,76.0,67.0,53.0,64.7,60.3,51.8,97,80,64,29.76,29.51,26,5,26,1.57
2013-4-12,67.8,54.3,43.7,51.8,44.8,39.5,96,73,42,29.95,29.64,12,2,13,0.01
2013-4-13,70.3,55.1,40.7,48.4,42.6,36.8,90,65,39,30.08,29.94,11,1,11,0.00
2013-4-14,72.7,58.8,47.0,54.2,48.5,42.1,87,70,39,29.97,29.83,24,4,24,0.00
2013-4-15,80.8,68.2,57.0,64.8,59.1,53.5,91,74,51,29.98,29.84,13,2,15,0.00
2013-4-16,82.6,72.8,64.5,71.4,65.6,60.0,88,79,66,30.09,29.96,20,3,20,0.00
2013-4-17,88.1,75.4,67.3,73.4,66.9,63.3,93,76,51,30.10,29.92,20,3,22,0.00
2013-4-18,82.9,74.2,66.6,66.6,63.2,60.2,90,70,51,29.92,29.55,32,7,34,0.00
2013-4-19,74.1,50.1,38.0,66.1,44.0,35.0,95,81,55,30.10,29.54,19,2,20,1.36
2013-4-20,64.7,49.5,34.7,42.6,36.5,33.2,96,66,34,30.27,30.10,15,1,15,0.00
2013-4-21,69.4,54.3,37.6,47.5,40.7,33.9,89,63,36,30.34,30.19,17,1,17,0.00
2013-4-22,74.4,60.0,45.6,52.7,46.3,41.8,88,63,36,30.24,30.06,20,2,21,0.00
2013-4-23,76.0,64.5,54.4,58.8,52.2,46.8,79,65,50,30.11,29.93,20,4,20,0.00
2013-4-24,64.9,55.7,46.6,59.9,50.9,42.1,95,84,75,30.25,29.85,21,2,21,0.58
2013-4-25,67.2,52.7,37.3,46.3,39.9,33.8,95,65,32,30.35,30.23,11,1,11,0.00
2013-4-26,65.8,53.3,41.7,49.8,45.0,39.6,95,76,47,30.39,30.22,15,2,15,0.36
2013-4-27,61.2,55.4,50.6,58.2,54.3,49.2,98,96,89,30.30,29.90,22,4,22,1.09
2013-4-28,69.3,62.7,55.3,65.3,59.2,53.3,98,89,73,29.97,29.85,20,2,20,1.69
2013-4-29,75.0,62.6,54.8,61.6,56.6,53.1,97,83,54,29.99,29.87,11,1,11,0.00
2013-4-30,80.6,66.1,50.5,62.0,56.3,49.1,98,74,45,29.99,29.90,13,1,13,0.00
2013-5-1,79.2,69.4,61.4,65.5,60.4,55.4,92,74,57,30.09,29.98,15,3,15,0.00
2013-5-2,76.2,67.4,58.5,64.3,59.5,55.3,91,77,60,30.11,30.00,16,2,16,0.00
2013-5-3,75.2,66.6,60.5,62.1,57.9,55.3,90,74,59,30.02,29.82,31,8,31,0.10
2013-5-4,60.4,47.3,44.5,57.8,45.6,43.2,98,94,86,29.94,29.82,6,0,7,1.44
2013-5-5,61.1,51.9,46.0,53.8,49.3,45.2,97,91,73,29.90,29.76,8,0,10,0.20
2013-5-6,62.2,54.4,48.0,55.7,51.8,46.4,100,91,74,29.88,29.71,14,0,15,0.86
2013-5-7,72.8,58.6,45.2,61.2,53.2,44.1,100,84,59,29.96,29.87,9,0,9,0.00
2013-5-8,80.3,65.7,51.7,65.1,58.3,50.6,98,79,51,30.00,29.92,8,0,8,0.00
2013-5-9,83.2,70.1,56.6,67.9,60.9,55.5,97,75,49,30.05,29.92,12,1,13,0.00
2013-5-10,71.9,66.4,63.6,66.4,62.8,60.1,96,88,78,29.96,29.84,15,2,18,0.82
2013-5-11,72.5,63.5,53.5,63.5,59.4,51.5,100,87,64,29.99,29.86,11,0,13,0.00
2013-5-12,66.6,56.1,44.5,54.0,41.6,35.0,96,61,33,30.14,29.99,15,1,15,0.00
2013-5-13,71.8,55.6,39.2,48.1,42.4,37.6,96,66,34,30.24,30.11,7,0,8,0.00
2013-5-14,85.3,67.5,47.6,64.6,54.9,43.4,90,67,45,30.16,29.96,15,1,15,0.00
2013-5-15,86.8,72.8,59.5,64.7,58.3,54.3,86,63,36,30.07,29.93,10,1,10,0.00
2013-5-16,85.7,72.5,62.3,68.4,60.8,55.8,88,68,46,29.99,29.88,9,0,9,0.00
2013-5-17,71.7,66.0,62.5,69.7,63.2,56.1,97,91,78,30.01,29.92,14,2,14,0.53
2013-5-18,84.0,72.7,65.7,73.0,68.2,64.1,98,87,64,29.97,29.89,9,0,9,0.21
2013-5-19,88.3,75.1,67.1,77.5,69.6,63.6,98,84,61,29.95,29.87,26,1,28,0.04
2013-5-20,83.6,73.5,64.0,74.0,67.7,61.0,93,83,66,30.00,29.88,13,3,14,0.00
2013-5-21,85.0,73.0,67.3,76.7,68.5,64.0,95,86,66,29.96,29.79,17,1,17,0.09
2013-5-22,82.1,71.5,63.5,70.0,65.5,62.0,96,82,63,29.87,29.76,15,1,15,0.03
2013-5-23,80.2,69.5,60.3,68.6,61.6,55.8,98,78,53,30.03,29.84,12,0,12,0.00
2013-5-24,72.8,62.4,52.0,57.8,52.2,49.1,94,71,46,30.26,30.02,13,2,13,0.00
2013-5-25,79.9,63.7,48.0,55.9,50.0,41.9,96,66,26,30.30,30.11,9,1,12,0.00
2013-5-26,85.0,68.6,51.2,63.3,55.1,49.0,96,66,33,30.19,30.08,8,1,9,0.00
2013-5-27,87.6,74.1,59.1,66.5,61.0,56.1,92,66,40,30.11,29.99,13,1,14,0.00
2013-5-28,88.5,77.1,64.9,66.2,62.9,59.6,85,63,43,30.07,29.96,16,2,18,0.00
2013-5-29,89.1,78.4,69.7,73.8,65.6,60.0,77,66,50,30.08,29.97,15,3,16,0.00
2013-5-30,86.5,78.2,69.2,74.4,68.4,63.1,83,72,61,30.07,29.95,19,5,21,0.00
2013-5-31,86.0,78.2,70.7,74.0,69.4,66.0,85,75,63,30.02,29.90,19,4,20,0.00
2013-6-1,86.8,75.9,67.8,75.0,69.3,66.0,96,81,62,29.97,29.78,17,2,18,0.14
2013-6-2,81.4,72.2,66.6,73.2,67.8,62.9,98,87,68,29.90,29.82,6,0,6,0.02
2013-6-3,81.9,70.5,61.8,67.3,62.0,57.8,95,76,52,29.97,29.87,10,1,10,0.00
2013-6-4,86.0,71.1,55.6,66.0,60.8,53.7,97,72,45,30.00,29.90,10,1,10,0.00
2013-6-5,81.3,70.1,61.8,74.0,66.8,59.5,97,90,73,29.95,29.81,11,1,13,0.56
2013-6-6,82.1,72.8,67.2,73.5,68.8,66.0,97,88,71,29.81,29.69,11,0,12,0.00
2013-6-7,80.8,70.7,64.7,70.9,66.6,63.5,98,88,63,29.83,29.68,6,0,7,0.04
2013-6-8,85.4,71.8,62.1,71.0,62.6,57.6,98,76,40,29.97,29.81,9,0,10,0.01
2013-6-9,80.3,71.8,64.9,74.3,68.4,60.9,96,89,78,30.00,29.83,17,2,17,1.01
2013-6-10,86.6,74.1,68.5,72.8,69.6,66.8,97,87,57,29.90,29.75,16,1,17,0.56
2013-6-11,93.4,79.5,67.6,78.9,72.7,66.7,98,82,51,29.97,29.89,6,0,6,0.00
2013-6-12,94.9,83.1,74.1,81.2,74.8,72.3,96,78,53,30.00,29.85,8,0,9,0.00
2013-6-13,92.0,80.5,70.7,80.0,72.5,63.1,92,77,58,29.88,29.74,16,1,16,0.00
2013-6-14,85.1,73.5,61.5,65.0,60.9,57.9,90,67,44,29.97,29.86,13,1,14,0.00
2013-6-15,89.5,75.4,60.0,68.8,63.8,58.1,97,70,43,30.04,29.95,14,1,14,0.00
2013-6-16,89.5,78.0,67.6,75.2,69.9,65.5,93,78,55,30.02,29.91,11,0,12,0.01
2013-6-17,84.5,74.1,69.3,76.9,71.2,67.7,96,91,72,29.95,29.84,11,1,11,0.73
2013-6-18,82.2,73.2,68.1,72.3,68.9,65.8,98,88,62,29.91,29.77,15,1,15,0.81
2013-6-19,89.3,76.4,64.0,74.3,68.3,62.8,98,78,51,30.01,29.88,8,0,8,0.00
2013-6-20,89.1,75.0,66.0,77.0,68.6,61.3,98,82,50,30.11,30.00,24,1,30,0.19
2013-6-21,89.2,76.5,65.4,75.3,69.5,64.2,98,80,55,30.17,30.07,12,1,12,0.00
2013-6-22,90.0,78.4,67.6,73.3,69.2,66.1,97,75,49,30.15,30.01,13,1,13,0.00
2013-6-23,90.0,78.3,66.2,75.3,68.7,64.2,96,74,51,30.11,29.99,12,1,12,0.00
2013-6-24,88.9,77.0,69.3,77.7,71.9,67.7,97,85,63,30.11,30.01,15,1,15,0.28
2013-6-25,91.1,79.8,71.0,79.6,73.6,70.1,98,83,58,30.07,29.91,11,1,11,0.00
2013-6-26,92.8,82.2,71.9,78.2,73.4,70.5,97,76,54,29.95,29.78,12,1,12,0.00
2013-6-27,94.4,81.9,71.9,81.4,73.9,68.6,94,78,54,29.84,29.75,9,0,9,0.03
2013-6-28,88.8,77.6,69.7,77.3,72.1,68.2,97,84,63,29.78,29.61,8,0,8,0.28
2013-6-29,88.7,76.9,65.9,72.4,67.3,64.2,98,75,45,29.65,29.58,7,0,9,0.01
2013-6-30,85.0,73.7,61.3,70.1,65.4,59.6,96,77,53,29.74,29.62,6,0,6,0.00
2013-7-1,84.5,72.3,64.9,71.7,67.5,63.4,97,86,60,29.84,29.70,11,0,12,0.23
2013-7-2,84.6,72.6,63.6,70.6,66.1,62.7,98,81,56,29.98,29.83,8,0,9,0.00
2013-7-3,83.4,73.3,64.8,72.9,67.8,63.2,96,84,65,30.05,29.97,23,1,23,0.00
2013-7-4,70.8,68.3,66.5,68.7,67.4,65.6,98,97,92,30.06,29.98,14,1,15,3.57
2013-7-5,78.0,72.2,67.8,74.2,70.9,67.2,99,96,87,30.07,29.99,15,3,17,0.39
2013-7-6,74.2,70.2,66.4,71.3,68.8,65.5,98,95,90,30.09,30.01,13,2,13,1.38
2013-7-7,88.5,77.5,68.6,76.5,71.6,67.7,99,83,57,30.08,29.99,8,0,8,0.00
2013-7-8,90.2,80.2,70.8,78.5,74.0,69.6,98,83,59,30.11,30.01,8,0,9,0.00
2013-7-9,93.3,82.2,72.7,79.0,74.9,71.6,98,80,54,30.09,29.97,7,0,7,0.00
2013-7-10,93.7,81.6,71.7,81.2,75.4,70.2,97,83,62,29.99,29.81,23,1,23,0.86
2013-7-11,90.8,78.0,70.0,78.4,73.0,68.7,98,85,57,29.91,29.84,10,1,11,0.01
2013-7-12,84.3,74.3,64.9,71.3,65.8,60.8,94,76,51,29.95,29.87,16,2,16,0.00
2013-7-13,87.4,73.7,60.1,72.9,65.3,58.5,97,77,51,29.98,29.92,10,1,10,0.00
2013-7-14,88.2,80.0,74.7,76.8,74.4,72.3,94,84,63,30.10,30.01,20,4,20,0.19
2013-7-15,90.0,80.6,73.4,76.6,72.2,69.7,90,77,56,30.21,30.09,16,4,16,0.00
2013-7-16,92.8,81.4,71.0,78.0,73.5,69.2,96,78,57,30.26,30.17,11,1,12,0.00
2013-7-17,95.5,82.9,71.5,79.9,74.7,70.3,98,78,50,30.23,30.10,11,1,11,0.00
2013-7-18,92.5,81.6,74.8,78.6,74.7,72.3,94,81,57,30.12,29.98,9,1,9,0.01
2013-7-19,91.8,81.8,71.9,78.2,74.2,70.9,98,79,56,30.03,29.89,9,0,9,0.00
2013-7-20,92.7,81.6,71.6,79.4,73.2,68.7,97,77,53,29.94,29.81,11,0,11,0.01
2013-7-21,89.9,79.2,72.3,80.5,73.6,69.5,96,84,58,29.93,29.84,7,0,7,0.00
2013-7-22,78.7,73.5,70.3,73.9,71.4,68.8,97,93,82,29.89,29.82,11,0,11,0.70
2013-7-23,87.8,77.7,70.1,78.7,73.3,69.2,98,87,68,29.88,29.75,9,0,9,0.00
2013-7-24,87.2,75.4,67.8,77.7,71.2,65.3,97,87,65,29.88,29.76,11,0,13,0.07
2013-7-25,84.7,72.8,61.5,71.4,65.9,60.3,97,80,54,29.99,29.87,10,1,12,0.01
2013-7-26,86.7,74.4,61.5,71.9,66.6,60.2,98,79,54,30.01,29.91,7,0,7,0.00
2013-7-27,86.1,75.8,68.3,74.5,69.0,65.9,94,80,63,29.92,29.82,6,0,7,0.00
2013-7-28,79.8,71.0,63.1,67.7,61.6,55.2,92,74,48,30.03,29.88,14,1,14,0.00
2013-7-29,82.5,70.6,58.7,67.2,61.0,57.3,97,74,45,30.14,30.03,11,1,11,0.00
2013-7-30,88.0,74.1,62.3,74.1,67.6,60.6,97,82,54,30.14,30.03,9,1,9,0.27
2013-7-31,82.8,73.9,68.4,77.7,71.8,67.5,98,94,79,30.07,29.88,11,1,12,0.59
2013-8-1,85.3,75.9,67.4,75.7,70.9,65.6,98,85,66,29.97,29.89,11,0,11,0.01
2013-8-2,87.1,74.9,62.6,72.5,67.2,61.6,98,79,50,30.00,29.93,9,0,9,0.00
2013-8-3,78.5,73.9,69.1,75.1,71.3,67.0,96,92,82,30.00,29.91,6,0,7,0.24
2013-8-4,85.1,76.2,67.6,75.3,69.6,62.8,98,82,54,30.04,29.97,11,1,11,0.01
2013-8-5,83.8,73.0,63.1,72.1,66.2,61.3,95,81,52,30.04,29.90,5,0,6,0.00
2013-8-6,83.4,76.0,69.5,77.8,73.1,67.1,97,91,81,29.92,29.86,11,0,11,0.29
2013-8-7,79.4,75.2,71.8,76.5,73.6,70.5,98,95,87,29.99,29.86,12,1,12,1.50
2013-8-8,85.5,74.4,71.3,78.9,72.3,70.3,97,93,77,29.97,29.86,11,1,14,0.47
2013-8-9,88.7,77.8,70.6,80.9,74.7,69.8,99,90,75,29.99,29.91,13,1,13,0.01
2013-8-10,89.7,79.0,70.8,79.1,74.5,69.9,98,87,65,30.06,29.98,11,0,12,0.01
2013-8-11,90.5,78.7,72.9,80.5,75.3,72.0,98,90,68,30.08,29.98,6,0,7,0.06
2013-8-12,87.7,77.7,71.9,80.1,74.7,71.0,98,91,74,30.03,29.86,9,0,10,0.10
2013-8-13,85.3,76.0,69.4,77.3,72.0,68.5,98,88,70,29.93,29.84,7,0,7,0.01
2013-8-14,78.8,69.6,60.8,68.9,62.0,57.1,91,78,56,30.02,29.91,13,2,15,0.00
2013-8-15,81.4,69.0,56.5,71.1,63.4,54.6,96,83,66,30.03,29.94,11,1,11,0.28
2013-8-16,79.3,71.0,62.7,69.7,66.4,61.6,98,86,67,30.04,29.98,12,1,12,0.01
2013-8-17,77.6,70.6,66.1,70.8,67.3,64.9,97,90,76,30.07,30.00,12,1,12,0.06
2013-8-18,79.4,72.0,66.3,71.9,68.0,64.5,95,88,73,30.10,30.02,9,1,9,0.00
2013-8-19,85.0,74.8,66.6,74.4,70.4,65.4,98,87,66,30.08,29.98,9,1,11,0.00
2013-8-20,87.2,77.3,71.1,78.4,72.9,69.5,96,87,70,30.08,29.99,12,1,13,0.00
2013-8-21,84.8,76.3,70.3,80.0,73.6,69.2,98,92,79,30.11,30.03,11,1,13,0.55
2013-8-22,89.9,78.5,68.3,78.1,72.9,67.4,98,84,62,30.10,29.97,7,0,8,0.00
2013-8-23,90.2,77.7,68.2,77.3,72.4,67.3,98,85,56,30.03,29.92,9,0,9,0.04
2013-8-24,90.1,78.0,67.7,76.3,70.7,66.8,98,80,51,30.14,30.01,12,1,12,0.01
2013-8-25,87.2,76.9,68.3,73.0,69.0,65.7,95,78,52,30.26,30.14,14,2,14,0.00
2013-8-26,87.3,74.8,63.9,72.4,66.9,62.6,97,78,53,30.25,30.09,8,0,8,0.00
2013-8-27,88.0,75.5,64.5,76.0,69.4,63.3,97,83,57,30.10,29.99,6,0,7,0.00
2013-8-28,91.6,78.4,67.5,77.5,72.0,66.5,98,82,56,30.02,29.94,6,0,6,0.01
2013-8-29,93.2,80.5,69.4,79.6,73.9,68.2,98,82,56,29.98,29.89,7,0,7,0.00
2013-8-30,94.4,82.5,72.7,80.5,75.5,71.5,97,81,57,29.93,29.82,8,0,8,0.00
2013-8-31,93.3,79.8,72.4,79.4,74.3,71.4,98,84,58,29.88,29.78,6,0,6,0.00
2013-9-1,82.7,75.6,71.9,74.8,71.8,70.0,96,88,71,29.87,29.77,9,0,9,0.07
2013-9-2,86.5,76.9,70.1,77.2,72.5,68.9,97,87,68,29.89,29.79,12,0,12,0.01
2013-9-3,88.4,76.7,66.4,73.3,68.6,63.3,98,78,51,29.97,29.83,11,1,12,0.00
2013-9-4,87.3,72.5,59.8,68.9,63.7,58.6,98,76,46,30.08,29.96,11,1,11,0.00
2013-9-5,87.3,71.7,57.8,68.9,62.7,56.7,98,76,40,30.12,30.06,11,1,12,0.01
2013-9-6,90.3,74.0,59.5,70.7,64.5,58.1,98,76,42,30.11,30.00,11,1,11,0.00
2013-9-7,92.5,76.5,62.0,73.2,66.6,60.8,98,75,42,30.04,29.92,6,0,6,0.00
2013-9-8,92.2,77.2,66.7,75.2,69.8,65.2,97,80,50,29.96,29.88,8,0,8,0.00
2013-9-9,94.0,78.6,68.9,78.4,71.8,67.2,96,82,51,30.02,29.93,14,1,15,0.04
2013-9-10,93.5,78.5,71.6,76.7,72.8,70.0,97,84,52,30.11,30.01,13,1,13,0.05
2013-9-11,92.4,79.0,69.6,76.9,72.4,68.7,98,82,53,30.15,30.02,7,0,7,0.01
2013-9-12,93.0,77.1,70.0,76.3,71.6,69.0,98,85,55,30.02,29.86,17,0,18,0.01
2013-9-13,80.8,70.5,59.0,70.0,61.1,53.5,96,75,42,29.96,29.86,14,2,15,0.01
2013-9-14,78.5,63.2,49.6,56.7,52.9,47.5,94,72,43,30.04,29.95,13,1,13,0.00
2013-9-15,85.8,68.8,51.7,66.5,59.6,50.0,97,75,47,30.08,30.01,13,1,15,0.00
2013-9-16,88.0,71.3,57.5,66.5,61.2,56.1,97,74,40,30.12,30.05,12,1,12,0.00
2013-9-17,87.2,73.1,62.3,69.6,65.8,60.8,96,80,50,30.13,30.02,10,1,11,0.00
2013-9-18,85.4,74.1,66.4,71.1,66.3,61.8,90,77,59,30.12,30.01,19,2,19,0.00
2013-9-19,89.3,76.0,66.3,71.6,67.1,63.6,92,75,52,30.10,29.96,11,1,12,0.00
2013-9-20,89.7,76.7,66.3,72.7,67.4,64.0,93,75,51,29.98,29.76,14,2,14,0.08
2013-9-21,76.5,67.4,55.9,70.4,62.4,53.1,97,85,56,29.81,29.67,11,1,14,1.34
2013-9-22,78.3,63.2,50.9,59.7,54.4,49.8,97,76,46,29.89,29.81,16,1,16,0.00
2013-9-23,82.8,65.9,50.0,64.9,57.9,48.6,97,78,48,29.95,29.88,13,1,13,0.01
2013-9-24,81.8,70.2,61.4,68.8,64.3,59.0,96,82,62,29.94,29.80,16,3,16,0.47
2013-9-25,73.3,67.7,63.2,69.4,65.9,62.0,98,94,86,29.83,29.76,7,0,7,0.06
2013-9-26,81.8,70.2,61.3,71.4,65.2,59.1,99,85,55,29.97,29.82,10,1,10,0.01
2013-9-27,84.8,68.7,54.2,69.2,60.9,52.8,98,79,43,30.07,29.97,11,0,11,0.01
2013-9-28,81.3,68.9,60.1,66.2,60.2,57.6,94,76,46,30.14,30.01,12,1,12,0.00
2013-9-29,76.8,66.2,58.2,64.0,59.9,55.6,94,81,59,30.06,29.95,14,2,14,0.00
2013-9-30,78.1,68.7,61.2,65.7,61.5,59.3,95,79,57,30.02,29.92,14,1,15,0.00
2013-10-1,84.2,72.4,63.0,70.3,65.6,59.7,93,80,61,30.06,29.96,13,1,13,0.00
2013-10-2,82.7,73.3,66.8,71.2,67.8,64.3,95,84,65,30.09,29.99,4,0,6,0.00
2013-10-3,86.5,75.0,67.8,70.6,66.2,62.2,96,76,49,30.05,29.95,14,1,14,0.00
2013-10-4,85.9,73.5,63.6,72.9,67.5,61.8,97,82,62,30.07,29.98,6,1,9,0.00
2013-10-5,89.0,77.6,67.9,73.8,68.8,65.6,93,76,53,30.02,29.86,14,2,16,0.00
2013-10-6,80.8,68.2,55.3,73.9,64.5,53.9,97,88,73,29.90,29.74,18,2,18,1.08
2013-10-7,68.5,57.3,46.9,54.9,51.0,45.9,98,81,57,30.07,29.87,14,1,14,0.00
2013-10-8,74.0,59.7,46.8,56.6,51.5,45.3,96,76,49,30.10,30.03,14,2,14,0.01
2013-10-9,80.2,66.5,53.6,64.5,58.9,51.4,96,78,52,30.14,30.04,11,1,11,0.00
2013-10-10,80.7,67.8,58.6,66.6,60.6,56.3,97,80,52,30.10,29.98,11,0,11,0.00
2013-10-11,80.8,65.6,51.9,64.5,57.6,50.5,97,78,49,30.05,29.95,11,0,12,0.00
2013-10-12,81.8,66.0,51.5,65.0,58.7,50.4,98,80,51,30.07,29.98,7,0,7,0.00
2013-10-13,82.8,68.6,58.1,68.5,61.8,56.4,97,81,51,30.19,30.07,11,1,12,0.01
2013-10-14,81.5,68.2,58.3,67.3,62.0,57.0,97,82,52,30.18,30.04,11,1,11,0.00
2013-10-15,75.6,67.9,61.9,64.5,61.9,60.3,96,82,64,30.06,29.95,18,2,18,0.00
2013-10-16,69.0,64.7,62.0,65.2,62.4,60.3,97,92,86,29.96,29.86,11,1,11,0.51
2013-10-17,64.4,58.8,49.6,61.1,56.3,47.9,97,92,74,29.97,29.84,11,0,11,0.07
2013-10-18,65.2,53.0,43.8,56.6,48.7,42.6,99,87,57,30.06,29.94,9,0,9,0.01
2013-10-19,60.9,51.5,39.9,55.9,48.3,38.3,97,89,73,30.04,29.87,14,0,14,0.01
2013-10-20,66.3,48.4,33.2,49.0,39.3,32.0,98,75,36,30.09,30.00,8,0,9,0.00
2013-10-21,73.0,55.1,40.0,50.8,45.5,38.6,97,74,37,30.07,29.94,12,0,12,0.01
2013-10-22,60.2,52.5,46.2,53.6,49.4,44.3,96,89,72,30.01,29.84,9,1,11,0.05
2013-10-23,56.0,46.8,38.5,46.5,40.3,35.1,96,80,51,30.09,29.83,17,1,17,0.00
2013-10-24,58.9,47.2,36.6,46.1,40.1,30.1,92,77,57,30.33,30.08,11,1,12,0.00
2013-10-25,53.7,39.2,27.4,35.5,29.6,25.4,94,71,39,30.47,30.32,14,1,14,0.00
2013-10-26,62.4,46.4,28.6,44.0,34.8,26.6,95,68,37,30.32,30.08,12,1,12,0.00
2013-10-27,64.5,58.0,51.5,57.0,51.1,43.5,88,78,70,30.09,30.01,7,0,7,0.00
2013-10-28,67.5,59.3,53.1,60.1,55.3,51.3,95,87,74,30.22,30.05,7,0,8,0.00
2013-10-29,75.8,62.6,50.0,62.8,57.1,48.9,100,83,61,30.26,30.12,14,1,14,0.01
2013-10-30,80.7,68.7,60.2,64.8,59.4,56.5,93,74,49,30.18,30.01,12,1,12,0.00
2013-10-31,70.1,66.4,62.5,66.2,61.7,56.7,94,85,73,30.01,29.53,29,6,30,0.35
2013-11-1,72.3,60.9,48.8,62.5,52.1,44.8,97,76,43,29.81,29.63,7,0,7,0.02
2013-11-2,67.3,53.1,43.1,50.7,44.6,41.4,96,75,44,30.13,29.78,17,1,17,0.00
2013-11-3,60.8,47.2,34.8,43.5,38.0,33.0,95,73,42,30.29,30.12,12,1,13,0.00
2013-11-4,68.2,54.6,38.9,45.7,41.1,36.3,92,63,37,30.34,30.23,21,3,21,0.00
2013-11-5,70.4,58.0,47.9,48.4,43.5,38.6,73,60,43,30.35,30.19,18,3,18,0.00
2013-11-6,74.9,63.8,54.3,62.4,55.7,40.5,96,76,57,30.20,29.98,19,2,19,0.42
2013-11-7,60.2,46.3,33.0,57.4,38.5,29.9,94,77,43,30.30,30.03,15,2,17,0.14
2013-11-8,58.6,43.0,30.5,38.2,31.4,27.3,95,68,31,30.39,30.22,14,1,15,0.00
2013-11-9,64.3,47.9,33.0,42.7,37.0,30.1,91,68,40,30.28,30.16,13,1,13,0.00
2013-11-10,67.2,52.3,40.7,48.3,39.3,30.4,93,63,38,30.31,30.22,10,1,12,0.00
2013-11-11,69.3,50.7,32.4,40.2,32.1,23.4,90,55,18,30.28,30.12,7,0,7,0.00
2013-11-12,54.4,40.7,28.5,45.0,28.1,16.8,91,62,37,30.57,30.14,23,4,23,0.02
2013-11-13,46.9,33.2,21.9,26.6,21.7,18.3,89,65,36,30.68,30.43,12,1,12,0.00
2013-11-14,59.9,41.7,25.9,28.9,23.7,20.8,85,53,23,30.43,30.18,12,2,12,0.00
2013-11-15,59.6,49.8,43.4,50.4,40.8,23.7,96,73,45,30.18,30.05,15,1,15,0.10
2013-11-16,66.2,58.6,45.3,61.1,56.2,44.0,98,92,83,30.10,29.93,20,4,21,0.03
2013-11-17,69.1,65.3,60.8,67.8,63.0,58.4,97,92,86,29.93,29.71,27,6,27,0.79
2013-11-18,65.2,53.6,43.1,59.6,42.2,33.4,96,68,40,30.19,29.89,15,2,15,0.01
2013-11-19,53.4,43.9,36.4,34.6,31.6,29.3,80,63,42,30.25,30.15,15,3,16,0.00
2013-11-20,63.4,47.6,31.4,39.6,34.3,29.0,94,64,35,30.22,30.13,21,3,21,0.00
2013-11-21,65.7,56.2,46.9,55.4,49.3,39.6,88,78,66,30.26,30.15,18,3,18,0.01
2013-11-22,60.3,55.1,46.1,59.2,53.5,45.0,96,94,89,30.28,30.16,15,2,15,0.15
2013-11-23,47.4,40.8,26.5,45.0,33.7,19.0,96,77,46,30.50,30.25,21,4,23,0.00
2013-11-24,37.7,28.6,21.2,19.2,16.7,13.2,82,62,40,30.62,30.45,20,4,20,0.00
2013-11-25,43.0,34.2,25.3,34.7,25.1,15.9,96,71,38,30.45,30.15,10,1,10,0.22
2013-11-26,39.4,36.8,34.2,38.5,35.8,30.6,97,96,87,30.16,29.84,20,3,21,1.05
2013-11-27,36.3,29.6,18.9,30.9,20.7,13.7,88,70,49,30.35,29.93,20,3,21,0.00
2013-11-28,45.6,29.2,15.0,23.1,18.3,12.6,93,67,34,30.49,30.34,9,1,9,0.00
2013-11-29,52.6,36.2,22.7,29.5,24.9,18.8,90,66,38,30.58,30.44,11,1,11,0.00
2013-11-30,60.6,42.6,27.9,36.5,30.3,24.7,90,65,32,30.46,30.22,17,2,17,0.00
2013-12-1,54.9,46.7,35.0,41.7,37.0,28.8,83,69,57,30.23,29.92,10,1,10,0.00
2013-12-2,54.2,51.2,47.8,51.1,47.9,40.9,96,89,72,29.92,29.72,9,1,9,0.00
2013-12-3,58.7,54.6,51.3,55.9,53.2,50.5,98,95,90,29.78,29.72,14,2,14,0.01
2013-12-4,76.0,66.3,56.3,64.1,61.1,55.5,97,84,61,29.83,29.73,19,5,19,0.00
2013-12-5,70.7,56.5,38.4,69.0,54.7,37.6,97,94,79,30.04,29.82,15,3,15,1.29
2013-12-6,38.3,35.6,31.7,37.4,34.8,30.9,97,97,96,30.32,29.98,17,4,18,2.05
2013-12-7,33.4,31.6,29.9,32.1,29.9,28.6,97,93,90,30.48,30.30,21,4,21,0.00
2013-12-8,47.9,39.0,33.0,47.6,38.4,31.7,99,97,95,30.31,30.03,10,2,12,0.39
2013-12-9,46.0,36.5,31.9,45.4,35.4,30.4,98,96,92,30.20,30.05,15,2,15,0.12
2013-12-10,40.6,32.1,26.6,33.9,28.9,25.0,95,89,68,30.39,30.08,14,1,14,0.03
2013-12-11,49.8,33.5,22.2,35.8,27.3,20.7,96,80,49,30.51,30.36,12,1,12,0.01
2013-12-12,39.7,27.7,17.8,23.8,18.6,14.7,88,70,39,30.59,30.40,11,2,11,0.00
2013-12-13,46.9,35.4,21.2,31.9,24.2,18.0,91,66,39,30.40,30.04,11,1,11,0.00
2013-12-14,51.0,44.6,36.6,50.2,42.2,30.2,97,91,61,30.05,29.76,21,4,21,0.48
2013-12-15,36.6,33.7,30.1,34.8,30.8,28.1,100,89,83,30.21,29.97,16,2,16,0.00
2013-12-16,56.3,40.2,28.0,40.9,33.8,26.2,95,79,54,30.21,30.08,15,3,15,0.01
2013-12-17,59.9,43.9,30.7,43.0,34.7,27.3,88,71,50,30.26,30.04,16,2,17,0.00
2013-12-18,52.4,38.5,24.6,32.5,25.6,21.1,94,63,30,30.34,30.17,11,2,12,0.00
2013-12-19,64.0,50.9,38.6,45.1,34.3,25.5,66,53,45,30.22,30.02,19,4,19,0.00
2013-12-20,62.7,58.3,52.7,58.4,51.5,32.8,94,79,46,30.04,29.88,17,4,20,0.06
2013-12-21,72.9,66.5,60.8,67.3,63.2,58.4,95,89,79,29.88,29.58,30,7,30,0.91
2013-12-22,61.2,57.4,49.0,60.0,56.2,47.1,97,96,91,30.05,29.65,16,2,16,0.39
2013-12-23,48.2,36.7,29.1,46.6,32.5,24.3,95,85,68,30.42,30.05,10,3,16,0.01
2013-12-24,35.2,27.8,20.4,24.6,19.2,13.5,90,71,43,30.54,30.40,14,2,14,0.00
2013-12-25,48.1,31.8,18.1,28.5,22.5,15.7,92,71,42,30.45,30.29,12,1,13,0.00
2013-12-26,47.5,34.9,26.7,32.7,26.7,23.5,91,73,46,30.41,30.31,11,1,11,0.00
2013-12-27,54.7,36.1,22.3,33.3,25.6,20.3,94,70,31,30.46,30.34,11,0,11,0.00
2013-12-28,47.2,38.6,29.3,41.2,34.2,25.1,96,85,61,30.35,29.91,8,0,8,0.40
2013-12-29,54.9,44.4,35.7,46.4,41.0,32.5,98,88,66,30.11,29.88,13,1,13,0.34
2013-12-30,35.7,32.6,27.6,32.3,29.0,25.3,91,87,82,30.27,30.10,12,2,12,0.00
2013-12-31,44.2,30.9,22.0,30.6,25.7,20.3,95,82,55,30.47,30.26,11,1,11,0.00
2014-1-1,52.2,37.6,24.0,39.1,30.2,22.3,100,76,49,30.33,29.96,15,2,17,0.01
2014-1-2,46.0,34.4,21.4,45.2,31.1,14.4,97,88,74,30.32,29.81,22,4,22,0.32